Погода в Борщеве

Украина / Тернопольская область     48°48′04″N   26°02′32″E
темп.,
°C
ветер,
м/с
пор.,
м/с
влажн.,
%
обл.,
%
осадки,
мм/ч
давл.,
гПа
погр.,
м
6 мая, чт
чт600:00+11ююз33785 0.4 100344
03:00+9сз61188100 0.4 1006540
06:00+7сз41090100 0.6 1008518
09:00+8зсз51082100 0.7 1012782
12:00+12зсз795273 0.0 10131450
15:00+14зсз574660 0.0 10132014
18:00+11юз136748 0.3 1013501
21:00+9ююв2272100 0.4 101313
7 мая, пт
пт700:00+7зюз116951 0.0 101412
03:00+6юв227745 0.0 101423
06:00+5юв348896 0.0 101255
09:00+10ююв51077100 0.0 1010378
12:00+12ююв3875100 0.4 1008339
15:00+12ююз1583100 1.3 1007185
18:00+11з378892 1.1 1007257
21:00+10зсз1189100 1.3 100714
8 мая, сб
сб800:00+9зсз51288100 0.2 1010574
03:00+6сз81578100 0.3 1013763
06:00+5зсз71377100 0.0 1016900
09:00+6зсз9136312 0.0 10181212
12:00+9зсз10125857 0.0 10201578
15:00+10сз89505 0.1 10201725
18:00+10ссз710525 0.0 10201500
21:00+6сз22720 0.0 102222
9 мая, вс
вс900:00+4з22830 0.0 102417
03:00+3з22882 0.0 102516
06:00+3з11875 0.0 102610
09:00+9юз22645 0.0 1027349
12:00+13ю22475 0.0 10261541
15:00+15ююв2240100 0.0 10251771
18:00+15юв33445 0.0 10241379
21:00+10юв34624 0.0 102565
10 мая, пн
пн1000:00+8юв386517 0.0 1026156
03:00+7вюв412657 0.0 1025253
06:00+6вюв412675 0.0 1025274
09:00+12юв713604 0.0 1025547
12:00+16юв9125251 0.0 10251060
15:00+18юв9114895 0.0 10241286
18:00+17юв8125614 0.0 10231034
21:00+13юв614601 0.0 1023532